This is the latest recevied weather packets stored in our database for station/object IA5FYI-13. If no packets are shown the sender has not sent any weather packets the latest 1 day(s).
| Time | Temp. | Humidity | Pressure | Rain* | Wind** | Luminosity | Snow |
|---|---|---|---|---|---|---|---|
| 1778082614 | 18.89° C | 84% | 1009.1 hPa | 0 mm | - | - | - |
| 1778081710 | 18.89° C | 82% | 1009.1 hPa | 0 mm | - | - | - |
| 1778080513 | 21.11° C | 76% | 1008.8 hPa | 0 mm | - | - | - |
| 1778077510 | 21.11° C | 78% | 1008.8 hPa | 0 mm | - | - | - |
| 1778076914 | 20° C | 79% | 1009.1 hPa | 0 mm | - | - | - |
| 1778076035 | 20° C | 79% | 1009.1 hPa | 0 mm | - | - | - |
| 1778073014 | 21.11° C | 79% | 1008.8 hPa | 0 mm | - | - | - |
| 1778072435 | 21.11° C | 80% | 1009.1 hPa | 0 mm | - | - | - |
| 1778071815 | 20° C | 81% | 1009.5 hPa | 0 mm | - | - | - |
| 1778071213 | 20° C | 82% | 1009.1 hPa | 0 mm | - | - | - |
| 1778070910 | 20° C | 82% | 1009.1 hPa | 0 mm | - | - | - |
| 1778069713 | 20° C | 84% | 1009.1 hPa | 0 mm | - | - | - |
| 1778069414 | 20° C | 83% | 1009.5 hPa | 0 mm | - | - | - |
| 1778068509 | 20° C | 83% | 1009.5 hPa | 2.54 mm | - | - | - |
| 1778066413 | 18.89° C | 84% | 1009.1 hPa | 2.54 mm | - | - | - |
| 1778065814 | 18.89° C | 84% | 1009.1 hPa | 2.29 mm | - | - | - |
| 1778063110 | 18.89° C | 86% | 1009.5 hPa | 2.03 mm | - | - | - |
| 1778060714 | 18.89° C | 90% | 1009.5 hPa | 0.25 mm | - | - | - |
| 1778060414 | 18.89° C | 90% | 1009.5 hPa | 0 mm | - | - | - |
| 1778060110 | 18.89° C | 90% | 1009.1 hPa | 0 mm | - | - | - |
| 1778059824 | 18.89° C | 89% | 1009.5 hPa | 0 mm | - | - | - |
| 1778059213 | 18.89° C | 89% | 1009.1 hPa | 0 mm | - | - | - |
| 1778058913 | 18.89° C | 89% | 1009.1 hPa | 0 mm | - | - | - |
| 1778058613 | 18.89° C | 89% | 1009.1 hPa | 0 mm | - | - | - |
| 1778057709 | 18.89° C | 89% | 1008.5 hPa | 12.19 mm | - | - | - |
* Rain latest hour (hover to see other rain measurements)
** Current wind speed in m/s (hover to see current wind gust speed)